Location: Newark
(40.7830°N, 8.7430°E)
Time: 04:31:14
(UTC+00:00)

ISS - Pass Details

Date: 21 September 2019
Orbit: 411 x 421 km, 51.6° (Epoch: 24 October)

Event Time Altitude Azimuth Distance (km) Brightness Sun altitude
Rises 20:05:54 0° 278° (W) 2,339 1.0 -30.0°
Reaches altitude 10° 20:08:28 10° 298° (WNW) 1,479 -0.1 -30.4°
Enters shadow 20:09:10 13° 309° (NW) 1,302 -0.5 -30.5°
